Hourly Data Report for June 13, 2017

ATIKOKAN (AUT)
ONTARIO

48°45'40.000" N
91°37'41.000" W
389.30 m
6020LPQ
71747
WCH

Download Data

Hourly Data (June 2017)
Hourly Data Report for June 13, 2017
TIME
LST
Temp Definition
°C
Dew Point Definition
°C
Rel Hum Definition
%
Precip. Amount Definition
mm

Wind Dir Definition
10's deg

Wind Spd Definition
km/h
Visibility Definition
km
Stn Press Definition
kPa
Hmdx Definition


Wind Chill Definition


Weather Definition


00:00 12.0 10.2 89 0.0   0   97.07     LegendNANA
01:00 11.2 9.5 90 0.0   0   97.08     LegendNANA
02:00 10.0 8.4 90 0.0   0   97.14     LegendNANA
03:00 9.1 8.0 93 0.0   0   97.14     LegendNANA
04:00 7.9 7.0 94 0.0 5 1   97.13     LegendNANA
05:00 9.0 8.2 95 0.0 8 2   97.18     LegendNANA
06:00 14.3 9.0 71 0.0 9 4   97.25     LegendNANA
07:00 17.3 8.1 55 0.0 9 10   97.20     LegendNANA
08:00 18.9 7.0 46 0.0 11 14   97.19     LegendNANA
09:00 20.1 6.9 42 0.0 12 15   97.09     LegendNANA
10:00 20.8 6.2 39 0.0 12 13   97.18     LegendNANA
11:00 20.4 6.4 40 0.0 12 15   97.15     LegendNANA
12:00 20.5 6.3 39 0.0 13 12   97.12     LegendNANA
13:00 20.3 7.5 44 0.0 15 10   97.22     LegendNANA
14:00 18.7 8.1 50 0.0 12 17   96.83     LegendNANA
15:00 19.7 7.4 45 0.0 10 18   96.70     LegendNANA
16:00 19.2 6.4 43 0.0 10 17   96.86     LegendNANA
17:00 19.2 6.3 43 0.0 11 19   96.91     LegendNANA
18:00 18.3 5.9 44 0.0 11 18   96.90     LegendNANA
19:00 17.4 5.5 46 0.0 10 12   96.87     LegendNANA
20:00 16.7 4.3 44 0.0 9 16   96.70     LegendNANA
21:00 16.6 4.0 43 0.0 11 19   96.65     LegendNANA
22:00 15.7 5.5 51 0.0 11 18   96.56     LegendNANA
23:00 12.4 9.2 81 0.9 11 8   96.61     LegendNANA

Notes on Data Quality.

Legend

  • E = Estimated
  • M = Missing
  • NA = Not Available*
  • [empty] = Indicates an unobserved value
Date modified: